This is the latest recevied weather packets stored in our database for station/object KC3HIX. If no packets are shown the sender has not sent any weather packets the latest 10 day(s).
| Time | Temp. | Humidity | Pressure | Rain* | Wind** | Luminosity | Snow |
|---|---|---|---|---|---|---|---|
| 1777439403 | 11.67° C | 80% | 1016.5 hPa | 0 mm | - | - | - |
| 1777438830 | 11.67° C | 79% | 1016.8 hPa | 0 mm | - | - | - |
| 1777438503 | 11.67° C | 79% | 1016.8 hPa | 0 mm | - | - | - |
| 1777437303 | 11.67° C | 78% | 1016.8 hPa | 0 mm | - | - | - |
| 1777436703 | 11.67° C | 79% | 1016.8 hPa | 0 mm | - | - | - |
| 1777435206 | 11.67° C | 75% | 1016.5 hPa | 0 mm | - | - | - |
| 1777434605 | 11.67° C | 75% | 1016.5 hPa | 0 mm | - | - | - |
| 1777434305 | 11.67° C | 76% | 1016.5 hPa | 0 mm | - | - | - |
| 1777434005 | 11.67° C | 77% | 1016.5 hPa | 0 mm | - | - | - |
| 1777432205 | 12.22° C | 74% | 1017.2 hPa | 0 mm | - | - | - |
| 1777431905 | 12.22° C | 75% | 1017.2 hPa | 0 mm | - | - | - |
| 1777431326 | 12.22° C | 74% | 1017.2 hPa | 0 mm | - | - | - |
| 1777431006 | 12.22° C | 74% | 1017.2 hPa | 0 mm | - | - | - |
| 1777429205 | 12.22° C | 74% | 1017.5 hPa | 0 mm | - | - | - |
| 1777426205 | 12.22° C | 73% | 1016.8 hPa | 0 mm | - | - | - |
| 1777425626 | 12.22° C | 73% | 1017.2 hPa | 0 mm | - | - | - |
| 1777423805 | 12.22° C | 73% | 1017.2 hPa | 0 mm | - | - | - |
| 1777422905 | 12.22° C | 73% | 1016.8 hPa | 0 mm | - | - | - |
| 1777422305 | 12.78° C | 72% | 1017.2 hPa | 0 mm | - | - | - |
| 1777421405 | 12.78° C | 72% | 1017.2 hPa | 0 mm | - | - | - |
| 1777419605 | 12.78° C | 71% | 1017.5 hPa | 0 mm | - | - | - |
| 1777418404 | 13.33° C | 70% | 1017.2 hPa | 0 mm | - | - | - |
| 1777414804 | 13.89° C | 67% | 1017.2 hPa | 0 mm | - | - | - |
| 1777414504 | 13.89° C | 67% | 1017.5 hPa | 0 mm | - | - | - |
| 1777411504 | 15° C | 62% | 1017.5 hPa | 0 mm | - | - | - |
* Rain latest hour (hover to see other rain measurements)
** Current wind speed in m/s (hover to see current wind gust speed)